www.pogodaiklimat.ru

Погода и климат >> Архив погоды >> Канада >> Baker Lake Airport


ПОГОДА в Baker Lake Airport

  • Прогноз погоды в Baker Lake Airport
  • Монитор погоды в Baker Lake Airport
  • Климат города

АРХИВ ПОГОДЫ в Baker Lake Airport

Время (UTC), дата Ветер
(напр.,м/с)
 
Видим.   Явления Облачность Т
(С)
Тd
(С)
f
(%)
Тe
(С)
Тes
(С)
Комфортность P
(гПа)
Po
(гПа)
Тmin
(С)
Tmax
(С)
R
(мм)
R24
(мм)
S
(см)
06 12.10 С 3 24 км ясно -8.8 -10.2 90 -14 -14 1008.7 1006.3 -11.7 -2.4
09 12.10 С 4 24 км ясно -9.5 -10.7 91 -17 -17 1007.5 1005.1
12 12.10 СВ 3 24 км 10/10 100 м
[St]
-7.1 -7.9 94 -13 -13 1006.8 1004.4 -10.5 -2.4 12
15 12.10 СВ 2 24 км 9/9 100 м
[]
-7.9 -9.1 91 -13 -13 1006.2 1003.8
18 12.10 С 3 30 км 9/9 100 м
[St]
-4.7 -5.9 91 -10 -10 1006.6 1004.2 -10.5 -4.7
21 12.10 С 5 30 км 9/9 300 м
[]
-3.9 -6.2 84 -11 -11 1006.9 1004.5
00 13.10 С 8 24 км 10/10 200 м
[Sc]
-5.2 -7.5 84 -14 -14 1008.3 1005.9 -10.3 -3.7
03 13.10 СЗ 5 24 км 10/10 300 м
[]
-4.9 -6.4 89 -12 -12 1009.0 1006.6
06 13.10 С 9 24 км слабый снег 10/10 600 м
[Sc]
-4.5 -7.4 80 -14 -14 1010.6 1008.2 -10.3 -3.4 0.0 61
09 13.10 С 7 24 км 3/3 300 м
[]
-8.2 -10.7 82 -17 -17 1012.1 1009.7
12 13.10 СЗ 9 24 км слабый снег 10/10 300 м
[Sc]
-8.2 -10.3 85 -18 -18 1013.9 1011.5 -8.8 -3.4 0.0 12
15 13.10 СЗ 8 30 км ясно -9.4 -11.8 83 -19 -19 1015.1 1012.7
18 13.10 СЗ 8 30 км {снег} 1/1 600 м
[Sc]
-6.5 -9.5 79 -15 -15 1015.6 1013.2 -10.2 -4.5 0.0 10
21 13.10 СЗ 5 30 км 3/3 300 м
[]
-7.2 -10.3 78 -15 -15 1016.1 1013.7
00 14.10 СЗ 5 30 км 10/10 300 м
[Sc]
-9.5 -12.3 80 -17 -17 1017.1 1014.7 -10.2 -6.0
03 14.10 СЗ 4 24 км 5/5 300 м
[]
-9.4 -11.4 85 -16 -16 1016.7 1014.3
06 14.10 З 5 24 км слабый снег 6/6 600 м
[Sc]
-8.9 -10.4 89 -16 -16 1016.3 1013.9 -10.2 -4.5 0.0 71
09 14.10 СЗ 3 24 км 10/10 600 м
[]
-7.8 -10.0 84 -13 -13 1016.3 1013.9
12 14.10 СЗ 5 24 км {снег} 9/9 300 м
[Sc]
-12.1 -13.5 89 -20 -20 1017.1 1014.7 -12.2 -4.5 0.0 8
15 14.10 СЗ 5 30 км 4/4 200 м
[]
-12.4 -14.3 86 -21 -21 1017.3 1014.9
18 14.10 СЗ 4 30 км ясно -12.0 -14.5 82 -19 -18 1017.2 1014.8 -14.0 -7.7
21 14.10 З 3 30 км 8/8 300 м
[]
-11.3 -13.9 81 -17 -17 1016.9 1014.5
00 15.10 С 2 24 км слабый снег 8/6 300 м
[Sc Ac trans]
-13.2 -15.2 85 -18 -18 1015.8 1013.4 -14.0 -10.9 0.0 8
03 15.10 СВ 3 24 км 10/10 300 м
[]
-12.2 -14.1 86 -18 -18 1013.7 1011.3
06 15.10 ЮЗ 3 24 км слабый снег 10/10 200 м
[Sc]
-12.3 -13.7 89 -18 -18 1012.2 1009.8 -14.0 -7.7 0.0 8
09 15.10 Ю 2 24 км 10/10 200 м
[]
-11.7 -13.1 89 -15 -15 1010.6 1008.2
12 15.10 В 4 24 км слабый снег 10/10 200 м
[Sc]
-11.1 -12.4 90 -18 -18 1009.8 1007.4 -13.7 -7.7 0.0 8
15 15.10 СВ 4 16 км 10/10 300 м
[]
-11.6 -13.3 87 -19 -19 1009.6 1007.2
18 15.10 СВ 4 24 км в посл. час снег 10/10 300 м
[Sc]
-11.5 -14.3 80 -19 -19 1009.9 1007.5 -13.7 -10.6 0.2 8
21 15.10 С 4 16 км 10/10 600 м
[]
-11.5 -14.4 79 -19 -19 1010.4 1008.0
00 16.10 С 7 16 км слабый снег 9/9 1000 м
[Sc Ac As]
-11.5 -14.1 81 -21 -21 1011.5 1009.1 -12.3 -10.6 0.4
03 16.10 С 6 24 км 9/9 1000 м
[]
-13.8 -16.2 82 -23 -23 1012.2 1009.8
06 16.10 СЗ 6 24 км слабый снег 10/10 300 м
[Frnb]
-12.7 -15.2 82 -22 -22 1012.6 1010.2 -14.3 -10.6 0.0 2
09 16.10 СЗ 8 24 км 9/9 1000 м
[]
-11.9 -14.4 82 -22 -22 1012.6 1010.2
12 16.10 24 км слабый снег н/о -14.0 -16.7 80 -24 -24 1013.1 1010.7 -10.6 0.0 8
15 16.10 СЗ 8 24 км 8/8 1000 м
[]
-12.8 -15.4 81 -23 -23 1013.0 1010.6
18 16.10 СЗ 7 30 км {снег} 1/1 300 м
[Sc Ac As]
-11.9 -15.1 77 -21 -21 1014.0 1011.6 0.0 8
21 16.10 СЗ 11 16 км 8/8 600 м
[]
-10.1 -13.3 77 -21 -21 1014.8 1012.4
00 17.10 СЗ 7 24 км слабый снег 9/8 300 м
[Sc Ac trans]
-10.2 -13.0 80 -19 -19 1015.4 1013.0 -9.3 0.0 8
03 17.10 СЗ 8 24 км 10/10 600 м
[]
-9.7 -12.1 83 -19 -19 1015.6 1013.2
06 17.10 СЗ 7 24 км слабый снег 10/10 1500 м
[Sc]
-10.8 -13.3 82 -20 -20 1015.9 1013.5 0.0 211
09 17.10 СЗ 8 24 км 10/10 600 м
[]
-11.4 -13.9 82 -21 -21 1015.5 1013.1
12 17.10 З 6 24 км позёмок {снег} 10/10 600 м
[Sc]
-10.3 -13.1 80 -19 -19 1015.6 1013.2 -11.4 0.0 8
15 17.10 З 5 16 км 10/10 300 м
[]
-9.0 -11.3 83 -16 -16 1013.8 1011.4
18 17.10 З 3 9000 м слабый снег 10/10 300 м
[Sc]
-8.1 -10.6 82 -14 -14 1013.4 1011.0 -11.9 -8.1 0.2 8
21 17.10 З 7 30 км 9/9 300 м
[]
-8.5 -11.6 78 -17 -17 1012.1 1009.7
00 18.10 З 4 24 км слабый снег 8/4 300 м
[Sc Ac trans]
-13.0 -15.0 85 -20 -20 1011.6 1009.2 -13.0 -7.5 0.0 8
03 18.10 ЮЗ 2 24 км 8/0
[]
-15.4 -17.2 86 -21 -21 1010.2 1007.8
06 18.10 24 км {снег} н/о -14.3 -16.0 87 -17 -17 1008.8 1006.4 -16.0 -7.5 0.0 90
09 18.10 штиль 0 24 км 5/0
[]
-14.5 -16.2 87 -15 -15 1007.0 1004.6
12 18.10 Ю 2 24 км 4/0
[]
-13.6 -15.5 86 -17 -17 1005.6 1003.2 -16.4 -7.5 0.0 8
15 18.10 ЮВ 5 30 км 9/9 200 м
[]
-9.5 -11.8 83 -17 -17 1004.2 1001.8
18 18.10 ЮВ 7 30 км 9/8 300 м
[Sc Ac trans]
-7.3 -10.1 80 -16 -16 1002.6 1000.2 -16.4 -7.3
21 18.10 ЮВ 7 8000 м 10/10 1000 м
[]
-5.7 -7.2 89 -14 -14 1000.8 998.4
00 19.10 ЮВ 6 24 км слабый снег 10/10 300 м
[Sc]
-4.6 -6.2 89 -12 -12 999.4 997.0 -16.4 -4.6 0.4 8
03 19.10 ЮВ 6 16 км 10/10 100 м
[]
-4.1 -4.9 94 -12 -12 997.8 995.4

 

Местоположение метеостанции Baker Lake Airport (Канада): широта 64.30 долгота -96.06 высота над уровнем моря 18 м.

В архиве по умолчанию представлена погода в Baker Lake Airport за последнюю неделю. Архивные данные за месяц целиком и за предыдущие месяцы, начиная с января 2011 года, Вы можете получить, выбрав интересующий диапазон дат из раскрывающегося списка и нажав кнопку "Ввод!".


*Определитесь, кто Вы:
робот инопланетянин человек

Внимание! Время в таблицах - всемирное. Для получения местного времени необходимо прибавить поправку, которая в Baker Lake Airport равна -6 ч.

Смотрите также архив погоды в соседних городах и на ближайших метеорологических станциях:

Погода в Baker Lake Climate (Канада) (4 км)
Погода в Back River MAPS (Канада) (199 км)
Погода в Rankin Inlet (Канада) (256 км)
Погода в Dubawnt Lake (Канада) (302 км)
Погода в Robertson Lake (Канада) (314 км)
Погода в Wager Bay (Канада) (357 км)
Погода в Arviat Climate (Канада) (370 км)
Погода в Arviat (Канада) (370 км)
Погода в Arviat Airport (Канада) (371 км)
Погода в Hanbury River ARS (Канада) (451 км)

Пояснения к столбцам:

Ветер - указаны скорость ветра в м/с - средняя за 10 мин, порывы в срок и между сроками (в фигурных скобках) и направление, откуда дует ветер: С - северный, СВ - северо-восточный, В - восточный, ЮВ - юго-восточный, Ю - южный, ЮЗ - юго-западный, З - западный, СЗ - северо-западный.
Видимость - горизонтальная дальность видимости в метрах или километрах. При видимости от 1 до 10 км при отсутствии осадков обычно наблюдается дымка, при ухудшении видимости до 1 км и менее - туман. В сухую погоду видимость может ухудшаться дымом, пылью или мглою.
Явления - указаны атмосферные явления, наблюдавшиеся в срок или в последний час перед сроком; фигурными скобками обозначены явления, наблюдавшиеся между сроками (за 1-3 часа до срока); квадратными скобками обозначены град или гололедные отложения с указанием их диаметра в мм.
Облачность - указаны через наклонную черту общая и нижняя облачность в баллах и высота нижней границы облаков в метрах; квадратными скобками обозначены формы облаков: Ci - перистые, Cs - перисто-слоистые, Cc - перисто-кучевые, Ac - высококучевые, As - высокослоистые, Sc - слоисто-кучевые, Ns - слоисто-дождевые, Cu - кучевые, Cb - кучево-дождевые. Подробнее классификацию облаков см. в Атласе облаков (PDF).
T - Температура воздуха - температура, измеренная на высоте 2 м над землей.
Td - Температура точки росы - температура, при понижении до которой содержащийся в воздухе водяной пар достигнет насыщения.
f - Относительная влажность воздуха - влажноcть воздуха, измеренная на высоте 2 м над землей.
Te - Эффективная температура - температура, которую ощущает одетый по сезону человек в тени. Характеристика душности погоды. При расчете учитывается влияние влажности воздуха и скорости ветра на теплоощущения человека.
Tes - Эффективная температура на солнце - температура, которую ощущает человек, с поправкой на солнечный нагрев. Характеристика знойности погоды. Зависит от высоты солнца над горизонтом, облачности и скорости ветра. Ночью, в пасмурную погоду, а также при ветре 12 м/с и более поправка равна нулю.
P - Атмосферное давление - приведенное к уровню моря атмосферное давление.
Po - Атмосферное давление - измеренное на уровне метеостанции атмосферное давление.
Tmin - Минимальная температура - минимум температуры воздуха на высоте 2 м над землей.
Tmax - Максимальная температура - максимум температуры воздуха на высоте 2 м над землей.
R - Количество осадков - Количество выпавших осадков за период времени, мм. При наведении курсора мыши на число - период времени, за который выпало указанное количество осадков.
R24 - Количество осадков - Количество выпавших осадков за 24 часа, мм.
S - Снежный покров - Высота снежного покрова, см. При наведении курсора мыши на число - состояние снежного покрова и степень покрытия местности в баллах.